Location: Northam
(31.6525°S, 116.6655°E)
Time: 07:00:19
(UTC+08:00)

Tiangong - Visible Passes

Search period start: 28 July 2021 00:00
Search period end: 07 August 2021 00:00
Orbit: 374 x 386 km, 41.5° (Epoch: 27 July)

Date Brightness Start Highest point End Pass type
(mag) Time Alt. Az. Time Alt. Az. Time Alt. Az.
29 Jul 3.5 18:51:53 10° NNE 18:52:47 12° NNE 18:52:47 12° NNE visible
30 Jul 3.1 19:25:28 10° NW 19:26:59 25° NNW 19:26:59 25° NNW visible
31 Jul 2.5 18:24:45 10° NNW 18:27:23 24° NE 18:28:59 16° E visible
31 Jul 4.7 20:01:00 10° W 20:01:07 11° W 20:01:07 11° W visible
01 Aug 1.0 18:59:31 10° WNW 19:02:40 77° SSW 19:03:01 65° SSE visible
02 Aug 1.6 17:58:21 10° NW 18:01:23 48° NNE 18:04:27 10° ESE visible
02 Aug 3.6 19:35:30 10° W 19:36:59 20° WSW 19:36:59 20° WSW visible
03 Aug 1.9 18:33:45 10° W 18:36:48 42° SSW 18:38:44 19° SE visible
04 Aug 3.1 19:10:04 10° WSW 19:12:27 19° SSW 19:12:33 19° SSW visible
05 Aug 2.7 18:08:08 10° W 18:10:55 27° SSW 18:13:42 10° SE visible
06 Aug 3.3 18:44:36 10° SW 18:46:39 16° S 18:47:55 13° SSE visible
